#timestamp,LO_Frequency,Hit,StdDev 
1512266415.8,286046999.0,N
1512266435.6,286046999.1,N
1512266455.4,286046999.4,N
1512266475.3,286046998.5,N
1512266495.1,286046998.1,N
1512266515.8,286046998.2,N
1512266535.7,286047000.5,N
1512266555.5,286046998.7,N
1512266575.4,286046998.8,N
1512266595.2,286047000.8,N
1512266615.0,286047000.5,N
1512266615.9,286047000.5,N
1512266635.8,286047001.9,N
1512266655.6,286047002.2,N
1512266675.4,286047002.7,N
1512266695.3,286047002.4,N
1512266715.1,286047002.1,N
1512266735.9,286046998.2,N
1512266755.7,286046998.4,N
1512266775.5,286046998.7,N
1512266795.4,286046999.0,N
1512266815.2,286047000.5,N
1512266835.0,286047000.9,N
1512266835.9,286047000.9,N
1512266855.8,286047002.2,N
1512266875.6,286047002.0,N
1512266895.5,286047001.6,N
1512266915.3,286047004.2,N
1512266935.1,286047003.4,N
1512266955.9,286047003.9,N
1512266975.7,286047003.7,N
1512266995.5,286047004.1,N
1512267015.4,286047005.5,N
1512267035.2,286047005.6,N
1512267055.1,286047004.2,N
1512267056.0,286047004.2,N
1512267075.8,286047004.1,N
1512267095.6,286047005.6,N
1512267115.5,286047003.1,N
1512267135.3,286047003.6,N
1512267155.1,286047003.4,N
1512267175.9,286047001.3,N
1512267195.7,286047001.8,N
1512267215.6,286047001.8,N
1512267235.4,286047001.6,N
1512267255.2,286047001.5,N
1512267275.1,286047003.6,N
1512267276.0,286047003.6,N
1512267295.8,286047001.5,N
1512267315.6,286047001.9,N
1512267335.5,286047002.4,N
1512267355.3,286047000.5,N
1512267375.2,286047000.6,N
1512267395.9,286046998.5,N
1512267415.7,286046998.7,N
1512267435.6,286047000.8,N
1512267455.4,286046998.6,N
1512267475.2,286047000.7,N
1512267495.1,286047000.3,N
1512267496.0,286047000.3,N
1512267515.8,286047000.8,N
1512267535.7,286047000.3,N
1512267555.5,286047000.8,N
1512267575.3,286047000.7,N
1512267595.2,286047002.8,N
1512267615.0,286047002.5,N
1512267615.9,286047002.5,N
1512267635.8,286047004.2,N
1512267655.6,286047001.4,N
1512267675.4,286047001.9,N
1512267695.3,286047003.8,N
1512267715.1,286047004.1,N
1512267735.8,286047001.3,N
1512267755.7,286047004.4,N
1512267775.5,286047001.9,N
1512267795.4,286047001.5,N
1512267815.2,286047002.5,N
1512267835.0,286047004.3,N
1512267835.9,286047004.3,N
1512267855.8,286047000.1,N
1512267875.6,286046998.1,N
1512267895.5,286047002.0,N
1512267915.3,286047002.2,N
1512267935.1,286047002.5,N
1512267955.9,286046999.9,N
1512267975.7,286047001.4,N
1512267995.5,286047002.2,N
1512268015.4,286047000.8,N
1512268035.2,286046998.1,N
1512268055.1,286046999.3,N
1512268056.0,286046999.3,N
1512268075.8,286047000.4,N
1512268095.6,286047004.4,N
1512268115.5,286047002.3,N
1512268135.3,286047002.4,N
1512268155.2,286047001.6,N
1512268175.9,286047004.4,N
1512268195.7,286047003.8,N
1512268215.6,286047001.8,N
1512268235.4,286047002.4,N
1512268255.2,286046999.7,N
1512268275.1,286047004.2,N
1512268276.0,286047004.2,N
1512268295.8,286047001.3,N
1512268315.7,286047001.8,N
1512268335.5,286047001.4,N
1512268355.3,286047002.0,N
1512268375.2,286047000.1,N
1512268395.0,286047000.2,N
1512268395.9,286047000.2,N
1512268415.7,286047002.6,N
1512268435.6,286047001.4,N
1512268455.4,286047001.3,N
1512268475.3,286046999.8,N
1512268495.1,286047004.3,N
1512268496.0,286047004.3,N
1512268515.8,286047003.8,N
1512268535.7,286047003.9,N
1512268555.5,286047003.1,N
1512268575.4,286047004.4,N
1512268595.2,286047004.2,N
1512268615.0,286047003.7,N
1512268615.9,286047003.7,N
1512268635.8,286047005.9,Y
1512268655.6,286047002.6,P
1512268675.5,286047002.7,P
1512268695.3,286047001.0,P
1512268715.1,286047000.3,N
1512268735.9,286047000.9,N
1512268755.7,286046999.9,N
1512268775.5,286047001.0,N
1512268795.4,286047000.4,N
1512268815.2,286046999.8,N
1512268835.1,286047002.5,N
1512268836.0,286047002.5,N
1512268855.8,286046999.8,N
1512268875.6,286046999.7,N
1512268895.5,286047001.0,N
1512268915.3,286047000.9,N
1512268935.1,286047001.1,N
1512268955.9,286046998.2,N
1512268975.7,286047001.2,N
1512268995.6,286047001.2,N
1512269015.4,286047000.9,N
1512269035.2,286047000.1,N
1512269055.1,286047000.0,N
1512269056.0,286047000.0,N
1512269075.8,286047001.0,N
1512269095.7,286047000.8,N
1512269115.5,286047000.9,N
1512269135.3,286047000.2,N
1512269155.2,286046999.7,N
1512269175.0,286046999.7,N
1512269175.9,286046999.7,N
1512269195.7,286047001.9,N
1512269215.6,286047002.0,N
1512269235.4,286046999.9,N
1512269255.3,286047001.0,N
1512269275.1,286047001.2,N
1512269276.0,286047001.2,N
1512269295.8,286046998.2,N
1512269315.7,286047001.1,N
1512269335.5,286046998.2,N
1512269355.3,286047000.4,N
1512269375.2,286047000.1,N
1512269395.0,286047001.0,N
1512269395.9,286047001.0,N
1512269415.8,286047000.8,N
1512269435.6,286046998.3,N
1512269455.4,286046999.0,N
1512269475.3,286046998.5,N
1512269495.1,286046998.2,N
1512269515.9,286047000.7,N
1512269535.7,286047000.8,N
1512269555.5,286047000.3,N
1512269575.4,286047000.0,N
1512269595.2,286047001.1,N
1512269615.0,286047000.5,N
1512269616.0,286047000.5,N
1512269635.8,286047000.7,N
1512269655.6,286047002.6,N
1512269675.5,286047002.3,N
1512269695.3,286047002.1,N
1512269715.2,286047002.0,N
1512269735.9,286047001.6,N
1512269755.7,286047001.5,N
1512269775.6,286047003.9,Y
1512269795.4,286047002.4,P
1512269815.3,286047000.7,N
1512269835.1,286046998.6,N
1512269836.0,286046998.6,N
1512269855.8,286047002.5,N
1512269875.7,286047002.5,N
1512269895.5,286047001.6,N
1512269915.4,286047001.4,N
1512269935.2,286047002.5,N
1512269955.0,286046999.7,N
1512269955.9,286046999.7,N
1512269975.8,286047000.5,N
1512269995.6,286047000.5,N
